Weather History for Fort Campbell, KY

Change the Weather History Date:

Monday, August 19, 2013

  Actual Average Record
Temperature  
Mean Temperature 72 °F -  
Max Temperature 83 °F 85 °F 97 °F (2007)
Min Temperature 62 °F 66 °F 61 °F (2008)
Cooling Degree Days 7    
Growing Degree Days 22 (Base 50)    
Moisture  
Dew Point 66 °F    
Average Humidity 96    
Maximum Humidity 100    
Minimum Humidity 58    
Precipitation  
Precipitation 0.00 in - - ()
Sea Level Pressure  
Sea Level Pressure 30.11 in    
Wind  
Wind Speed 3 mph (ENE)    
Max Wind Speed 8 mph    
Max Gust Speed -    
Visibility 3 miles    
Events Fog , Rain    
Averages and records for this station are not official NWS values.
T = Trace of Precipitation, MM = Missing Value Source: NWS Daily Summary

Daily Weather History Graph

Daily Weather History Graph

Search for Another Location

Airport:

Trip Planner

Search our weather history database for the weather conditions in past years. The results will help you decide how hot, cold, wet, or windy it might be!

Date:

Astronomy

Aug. 19, 2013 Rise Set
Actual Time 6:10 AM CDT 7:35 PM CDT
Civil Twilight 5:43 AM CDT 8:02 PM CDT
Nautical Twilight 5:11 AM CDT 8:35 PM CDT
Astronomical Twilight 4:36 AM CDT 9:09 PM CDT
Moon 6:26 PM CDT (8/19) 4:30 AM CDT (8/19)
Length of Visible Light 14h 19m
Length of Day
13h 24m
Waxing Gibbous, 97% of the Moon is Illuminated
Aug 19
Waxing Gibbous
Aug 20
Full
Aug 28
Last Quarter
Sep 5
New
Sep 12
First Quarter

Hourly Weather History & Observations

Time (CDT) Temp. Heat Index Dew Point Humidity Pressure Visibility Wind Dir Wind Speed Gust Speed Precip Events Conditions
12:58 AM 67.6 °F - 67.6 °F 100% 30.11 in 10.0 mi East 2.3 mph - N/A   Clear
1:58 AM 64.6 °F - 64.6 °F 100% 30.09 in 5.0 mi NE 3.5 mph - N/A   Clear
2:41 AM 64.4 °F - 64.4 °F 100% 30.10 in 2.5 mi NE 3.5 mph - N/A   Clear
2:43 AM 64.4 °F - 64.4 °F 100% 30.10 in 1.8 mi NE 2.3 mph - N/A   Clear
2:44 AM 64.4 °F - 64.4 °F 100% 30.10 in 1.2 mi NE 2.3 mph - N/A   Clear
2:45 AM 64.4 °F - 64.4 °F 100% 30.11 in 1.0 mi NE 2.3 mph - N/A   Clear
2:46 AM 64.4 °F - 64.4 °F 100% 30.11 in 0.8 mi NNE 2.3 mph - N/A   Clear
2:48 AM 64.4 °F - 64.4 °F 100% 30.11 in 0.8 mi NNE 2.3 mph - N/A   Clear
2:49 AM 64.4 °F - 64.4 °F 100% 30.10 in 0.5 mi NNE 2.3 mph - N/A Fog Fog
2:56 AM 62.6 °F - 62.6 °F 100% 30.10 in 0.8 mi NNE 4.6 mph - N/A   Clear
2:58 AM 63.3 °F - 63.3 °F 100% 30.10 in 0.8 mi NNE 4.6 mph - N/A   Clear
3:00 AM 64.4 °F - 64.4 °F 100% 30.10 in 1.0 mi NNE 4.6 mph - N/A   Clear
3:01 AM 64.4 °F - 64.4 °F 100% 30.10 in 1.0 mi NNE 4.6 mph - N/A   Clear
3:03 AM 64.4 °F - 64.4 °F 100% 30.10 in 1.0 mi NNE 4.6 mph - N/A   Clear
3:05 AM 64.4 °F - 64.4 °F 100% 30.10 in 0.8 mi NNE 4.6 mph - N/A   Clear
3:11 AM 64.4 °F - 64.4 °F 100% 30.10 in 1.0 mi NNE 3.5 mph - N/A   Clear
3:15 AM 64.4 °F - 64.4 °F 100% 30.10 in 1.0 mi NE 3.5 mph - N/A   Clear
3:22 AM 64.4 °F - 64.4 °F 100% 30.10 in 1.2 mi NNE 4.6 mph - N/A   Clear
3:26 AM 64.4 °F - 64.4 °F 100% 30.10 in 1.2 mi NE 3.5 mph - N/A   Clear
3:28 AM 64.4 °F - 64.4 °F 100% 30.10 in 1.2 mi NE 3.5 mph - N/A   Clear
3:30 AM 64.4 °F - 64.4 °F 100% 30.10 in 1.0 mi NE 3.5 mph - N/A   Clear
3:34 AM 64.4 °F - 64.4 °F 100% 30.10 in 1.0 mi NE 3.5 mph - N/A   Clear
3:42 AM 64.4 °F - 64.4 °F 100% 30.10 in 1.0 mi ENE 2.3 mph - N/A   Clear
3:52 AM 64.4 °F - 64.4 °F 100% 30.10 in 1.0 mi ENE 1.2 mph - N/A   Clear
3:55 AM 64.4 °F - 64.4 °F 100% 30.10 in 1.0 mi NE 1.2 mph - N/A   Clear
3:58 AM 63.9 °F - 63.9 °F 100% 30.09 in 1.0 mi East 1.2 mph - N/A   Clear
3:59 AM 64.4 °F - 64.4 °F 100% 30.10 in 1.2 mi East 1.2 mph - N/A   Clear
4:00 AM 64.4 °F - 64.4 °F 100% 30.10 in 1.5 mi East 1.2 mph - N/A   Clear
4:02 AM 64.4 °F - 64.4 °F 100% 30.10 in 2.5 mi ESE 1.2 mph - N/A   Clear
4:03 AM 64.4 °F - 64.4 °F 100% 30.10 in 3.0 mi East 1.2 mph - N/A   Clear
4:20 AM 64.4 °F - 64.4 °F 100% 30.10 in 10.0 mi East 1.2 mph - N/A   Light Drizzle
4:29 AM 64.4 °F - 64.4 °F 100% 30.10 in 6.0 mi Calm Calm - N/A   Partly Cloudy
4:36 AM 64.4 °F - 64.4 °F 100% 30.10 in 2.5 mi Calm Calm - N/A   Partly Cloudy
4:38 AM 64.4 °F - 64.4 °F 100% 30.10 in 1.8 mi Calm Calm - N/A   Partly Cloudy
4:40 AM 62.6 °F - 62.6 °F 100% 30.10 in 1.2 mi East 1.2 mph - N/A   Partly Cloudy
4:42 AM 62.6 °F - 62.6 °F 100% 30.10 in 1.2 mi ENE 2.3 mph - N/A   Partly Cloudy
4:43 AM 62.6 °F - 62.6 °F 100% 30.10 in 1.0 mi ENE 2.3 mph - N/A   Mist
4:44 AM 62.6 °F - 62.6 °F 100% 30.10 in 0.8 mi ENE 2.3 mph - N/A   Mist
4:46 AM 62.6 °F - 62.6 °F 100% 30.10 in 0.5 mi NE 2.3 mph - N/A Fog Fog
4:51 AM 62.6 °F - 62.6 °F 100% 30.10 in 0.5 mi NNE 2.3 mph - N/A Fog Fog
4:52 AM 62.6 °F - 62.6 °F 100% 30.10 in 0.5 mi NNE 3.5 mph - N/A Fog Fog
4:55 AM 62.6 °F - 62.6 °F 100% 30.10 in 0.5 mi NNE 3.5 mph - N/A Fog Fog
4:58 AM 62.6 °F - 62.6 °F 100% 30.09 in 0.5 mi NNE 3.5 mph - 0.00 in Fog Fog
5:02 AM 62.6 °F - 62.6 °F 100% 30.10 in 0.5 mi NNE 3.5 mph - N/A Fog Fog
5:10 AM 62.6 °F - 62.6 °F 100% 30.10 in 0.8 mi NE 2.3 mph - N/A   Mist
5:12 AM 62.6 °F - 62.6 °F 100% 30.10 in 0.5 mi NE 2.3 mph - N/A Fog Fog
5:16 AM 62.6 °F - 62.6 °F 100% 30.10 in 0.8 mi NE 2.3 mph - N/A   Mist
5:27 AM 62.6 °F - 62.6 °F 100% 30.10 in 1.0 mi NNE 2.3 mph - N/A   Mist
5:36 AM 62.6 °F - 62.6 °F 100% 30.10 in 0.8 mi NNE 3.5 mph - N/A   Mist
5:56 AM 62.6 °F - 62.6 °F 100% 30.11 in 0.8 mi ENE 2.3 mph - N/A   Clear
5:58 AM 62.6 °F - 62.6 °F 100% 30.11 in 0.8 mi ENE 2.3 mph - N/A   Clear
6:01 AM 62.6 °F - 62.6 °F 100% 30.11 in 0.8 mi Calm Calm - N/A   Clear
6:02 AM 62.6 °F - 62.6 °F 100% 30.11 in 0.8 mi Calm Calm - N/A   Clear
6:03 AM 62.6 °F - 62.6 °F 100% 30.11 in 1.0 mi Calm Calm - N/A   Clear
6:06 AM 62.6 °F - 62.6 °F 100% 30.11 in 1.0 mi Calm Calm - N/A   Clear
6:08 AM 62.6 °F - 62.6 °F 100% 30.12 in 1.2 mi Calm Calm - N/A   Clear
6:12 AM 62.6 °F - 62.6 °F 100% 30.12 in 1.5 mi Variable 1.2 mph - N/A   Clear
6:15 AM 62.6 °F - 62.6 °F 100% 30.12 in 2.0 mi SSE 2.3 mph - N/A   Clear
6:16 AM 62.6 °F - 62.6 °F 100% 30.12 in 3.0 mi SSE 2.3 mph - N/A   Clear
6:28 AM 64.4 °F - 64.4 °F 100% 30.12 in 2.5 mi ESE 1.2 mph - N/A   Scattered Clouds
6:29 AM 64.4 °F - 64.4 °F 100% 30.12 in 2.0 mi ESE 1.2 mph - N/A   Mostly Cloudy
6:30 AM 64.4 °F - 64.4 °F 100% 30.12 in 1.5 mi ESE 2.3 mph - N/A   Mostly Cloudy
6:31 AM 64.4 °F - 64.4 °F 100% 30.12 in 1.2 mi ESE 2.3 mph - N/A   Mostly Cloudy
6:32 AM 64.4 °F - 64.4 °F 100% 30.12 in 1.0 mi ESE 2.3 mph - N/A   Mist
6:33 AM 64.4 °F - 64.4 °F 100% 30.12 in 0.8 mi ESE 3.5 mph - N/A   Mist
6:34 AM 64.4 °F - 64.4 °F 100% 30.12 in 0.5 mi ESE 3.5 mph - N/A Fog Fog
6:35 AM 64.4 °F - 64.4 °F 100% 30.12 in 0.5 mi ESE 2.3 mph - N/A Fog Fog
6:36 AM 64.4 °F - 64.4 °F 100% 30.12 in 0.5 mi ESE 2.3 mph - N/A Fog Fog
6:37 AM 64.4 °F - 64.4 °F 100% 30.12 in 0.2 mi East 2.3 mph - N/A Fog Fog
6:39 AM 64.4 °F - 64.4 °F 100% 30.12 in 0.2 mi ESE 3.5 mph - N/A Fog Fog
6:48 AM 64.4 °F - 64.4 °F 100% 30.12 in 0.2 mi ESE 2.3 mph - N/A Fog Fog
6:58 AM 64.4 °F - 64.4 °F 100% 30.12 in 0.2 mi East 1.2 mph - N/A Fog Fog
7:01 AM 64.4 °F - 64.4 °F 100% 30.13 in 0.2 mi ESE 2.3 mph - N/A Fog Fog
7:17 AM 64.4 °F - 64.4 °F 100% 30.13 in 0.2 mi ESE 3.5 mph - N/A Fog Fog
7:47 AM 66.2 °F - 66.2 °F 100% 30.13 in 0.5 mi East 3.5 mph - N/A Fog Fog
7:50 AM 66.2 °F - 66.2 °F 100% 30.13 in 0.5 mi East 3.5 mph - N/A Fog Fog
7:55 AM 66.2 °F - 66.2 °F 100% 30.13 in 0.8 mi East 2.3 mph - N/A   Mist
7:57 AM 66.2 °F - 66.2 °F 100% 30.14 in 0.8 mi East 2.3 mph - N/A   Mist
7:58 AM 66.6 °F - 66.6 °F 100% 30.14 in 0.8 mi East 2.3 mph - N/A   Mist
8:00 AM 66.2 °F - 66.2 °F 100% 30.13 in 1.0 mi Variable 3.5 mph - N/A   Mist
8:01 AM 66.2 °F - 66.2 °F 100% 30.13 in 1.0 mi East 3.5 mph - N/A   Mist
8:04 AM 68.0 °F - 68.0 °F 100% 30.14 in 1.0 mi East 3.5 mph - N/A   Overcast
8:05 AM 68.0 °F - 68.0 °F 100% 30.14 in 1.2 mi ESE 3.5 mph - N/A   Overcast
8:07 AM 68.0 °F - 68.0 °F 100% 30.14 in 1.5 mi ESE 3.5 mph - N/A   Overcast
8:17 AM 68.0 °F - 68.0 °F 100% 30.14 in 2.0 mi East 2.3 mph - N/A   Overcast
8:23 AM 68.0 °F - 68.0 °F 100% 30.14 in 3.0 mi East 3.5 mph - N/A   Overcast
8:55 AM 68.0 °F - 68.0 °F 100% 30.14 in 6.0 mi Calm Calm - N/A   Light Drizzle
8:58 AM 68.7 °F - 68.7 °F 100% 30.14 in 6.0 mi Calm Calm - N/A   Light Drizzle
9:08 AM 69.8 °F - 69.8 °F 100% 30.14 in 9.0 mi NNE 1.2 mph - N/A   Light Drizzle
9:58 AM 73.0 °F - 72.9 °F 99% 30.14 in 10.0 mi NNW 2.3 mph - 0.00 in   Light Drizzle
10:03 AM 73.4 °F - 73.4 °F 100% 30.14 in 10.0 mi Variable 2.3 mph - N/A   Light Drizzle
10:05 AM 73.4 °F - 73.4 °F 100% 30.14 in 10.0 mi East 2.3 mph - N/A   Overcast
10:07 AM 73.4 °F - 73.4 °F 100% 30.14 in 10.0 mi Variable 1.2 mph - N/A Rain Light Rain
10:21 AM 75.2 °F - 73.4 °F 94% 30.14 in 10.0 mi Variable 4.6 mph - N/A   Mostly Cloudy
10:30 AM 77.0 °F - 69.8 °F 78% 30.14 in 10.0 mi East 8.1 mph - N/A   Mostly Cloudy
10:35 AM 77.0 °F - 69.8 °F 78% 30.14 in 10.0 mi East 6.9 mph - N/A   Scattered Clouds
10:36 AM 75.2 °F - 69.8 °F 83% 30.14 in 10.0 mi East 5.8 mph - N/A   Light Drizzle
10:40 AM 75.2 °F - 71.6 °F 89% 30.14 in 10.0 mi East 3.5 mph - N/A   Scattered Clouds
10:42 AM 75.2 °F - 71.6 °F 89% 30.14 in 10.0 mi Variable 2.3 mph - N/A   Light Drizzle
10:54 AM 77.0 °F - 71.6 °F 83% 30.14 in 10.0 mi ESE 5.8 mph - N/A   Mostly Cloudy
10:58 AM 76.8 °F - 70.9 °F 82% 30.14 in 10.0 mi Variable 4.6 mph - 0.00 in   Mostly Cloudy
11:58 AM 78.4 °F - 68.4 °F 71% 30.12 in 10.0 mi East 5.8 mph - N/A   Scattered Clouds
12:58 PM 81.1 °F 83.9 °F 68.0 °F 64% 30.10 in 10.0 mi SE 3.5 mph - N/A   Partly Cloudy
1:58 PM 82.2 °F 85.3 °F 68.5 °F 63% 30.09 in 10.0 mi East 5.8 mph - N/A   Clear
2:58 PM 82.4 °F 84.8 °F 66.6 °F 59% 30.07 in 10.0 mi East 4.6 mph - N/A   Scattered Clouds
3:58 PM 82.9 °F 85.4 °F 66.7 °F 58% 30.06 in 10.0 mi East 5.8 mph - N/A   Partly Cloudy
4:58 PM 82.2 °F 84.9 °F 67.5 °F 61% 30.06 in 10.0 mi NE 4.6 mph - N/A   Mostly Cloudy
5:58 PM 81.0 °F 83.8 °F 68.0 °F 65% 30.04 in 10.0 mi NE 3.5 mph - N/A   Partly Cloudy
6:58 PM 78.6 °F - 70.9 °F 77% 30.04 in 10.0 mi NE 3.5 mph - N/A   Partly Cloudy
7:58 PM 76.1 °F - 71.1 °F 84% 30.04 in 10.0 mi NE 1.2 mph - N/A   Scattered Clouds
8:58 PM 74.5 °F - 72.5 °F 94% 30.06 in 9.0 mi NNE 4.6 mph - N/A   Mostly Cloudy
9:58 PM 71.1 °F - 71.1 °F 100% 30.07 in 10.0 mi ENE 4.6 mph - N/A   Clear
10:58 PM 72.1 °F - 71.1 °F 96% 30.08 in 10.0 mi ESE 1.2 mph - N/A   Clear
11:58 PM 71.4 °F - 71.4 °F 100% 30.07 in 10.0 mi East 2.3 mph - N/A   Clear